Location: Caltech
(34.1382°N, 118.1253°W)
Time: 15:17:06
(UTC-07:00)

Hamsat - Visible Passes

Search period start: 28 July 2016 00:00
Search period end: 07 August 2016 00:00
Orbit: 585 x 620 km, 97.6° (Epoch: 27 July)

Date Brightness Start Highest point End Pass type
(mag) Time Alt. Az. Time Alt. Az. Time Alt. Az.
28 Jul ? 05:05:54 10° NNE 05:09:55 49° E 05:13:57 10° S visible
29 Jul ? 05:17:50 10° NNE 05:21:59 72° ESE 05:26:07 10° S visible
30 Jul ? 05:29:51 10° N 05:34:01 79° WNW 05:38:10 10° SSW visible
01 Aug ? 04:20:06 10° ENE 04:22:07 13° E 04:24:06 10° ESE visible
02 Aug ? 04:31:17 10° NE 04:34:14 19° E 04:37:10 10° SE visible
03 Aug ? 04:42:50 10° NE 04:46:20 26° E 04:49:49 10° SSE visible
04 Aug ? 04:54:33 10° NNE 04:58:25 36° E 05:02:16 10° SSE visible
05 Aug ? 05:06:24 10° NNE 05:10:29 52° E 05:14:34 10° S visible
06 Aug ? 05:18:21 10° NNE 05:22:31 75° ESE 05:26:42 10° S visible
